HDA874 VHHH-ZSPD

Flight info

Callsign HDA874
Flight time 1h 50m
Altitude 35000
Route LEKEN V601 DOTMI A470 BEBEM A470 LJG B221 SHZ W58 BK
Aircraft A320/M-SDE3FGHIRWY/LB1

Departure

Time 2026-04-30 07:06
Airport Hong Kong International Airport (VHHH)

Arrival

Time 2026-04-30 08:57
Airport Shanghai Pudong International Airport (ZSPD)
Time Latitude Longitude Altitude Speed Heading
2026-04-30 06:43 22.31064 113.92558 40 ft 0 kts 116°
2026-04-30 06:49 22.31063 113.92559 40 ft 0 kts 116°
2026-04-30 06:51 22.31068 113.92548 41 ft 2 kts 116°
2026-04-30 06:51 22.31075 113.92534 41 ft 2 kts 116°
2026-04-30 06:52 22.31082 113.92519 41 ft 2 kts 116°
2026-04-30 06:52 22.31088 113.92504 41 ft 2 kts 118°
2026-04-30 06:52 22.31098 113.92492 42 ft 2 kts 143°
2026-04-30 06:52 22.31111 113.92484 42 ft 2 kts 163°
2026-04-30 06:53 22.31126 113.92482 42 ft 2 kts 183°
2026-04-30 06:53 22.31140 113.92485 43 ft 1 kts 202°
2026-04-30 06:53 22.31146 113.92488 43 ft 1 kts 207°
2026-04-30 06:53 22.31147 113.92489 43 ft 0 kts 206°
2026-04-30 06:54 22.31146 113.92488 43 ft 1 kts 207°
2026-04-30 06:54 22.31136 113.92483 42 ft 0 kts 207°
2026-04-30 06:56 22.31135 113.92482 42 ft 0 kts 203°
2026-04-30 06:57 22.31130 113.92480 42 ft 2 kts 205°
2026-04-30 06:57 22.31095 113.92462 41 ft 8 kts 205°
2026-04-30 06:58 22.31031 113.92429 40 ft 11 kts 206°
2026-04-30 06:58 22.30961 113.92392 38 ft 0 kts 204°
2026-04-30 06:59 22.30960 113.92391 38 ft 1 kts 204°
2026-04-30 06:59 22.30933 113.92378 37 ft 6 kts 206°
2026-04-30 06:59 22.30894 113.92332 34 ft 10 kts 264°
2026-04-30 06:59 22.30945 113.92272 34 ft 12 kts 339°
2026-04-30 07:00 22.31025 113.92242 34 ft 12 kts 341°
2026-04-30 07:00 22.31126 113.92205 34 ft 18 kts 341°
2026-04-30 07:00 22.31249 113.92160 33 ft 18 kts 341°
2026-04-30 07:00 22.31376 113.92113 31 ft 19 kts 340°
2026-04-30 07:01 22.31506 113.92065 29 ft 20 kts 341°
2026-04-30 07:01 22.31592 113.92030 28 ft 11 kts 323°
2026-04-30 07:01 22.31601 113.91948 28 ft 12 kts 246°
2026-04-30 07:01 22.31571 113.91858 27 ft 13 kts 251°
2026-04-30 07:02 22.31535 113.91746 27 ft 18 kts 251°
2026-04-30 07:02 22.31494 113.91615 28 ft 18 kts 251°
2026-04-30 07:02 22.31451 113.91489 28 ft 18 kts 251°
2026-04-30 07:02 22.31410 113.91357 28 ft 20 kts 251°
2026-04-30 07:03 22.31353 113.91181 29 ft 28 kts 251°
2026-04-30 07:03 22.31288 113.90983 29 ft 27 kts 251°
2026-04-30 07:03 22.31227 113.90791 28 ft 26 kts 250°
2026-04-30 07:03 22.31166 113.90605 28 ft 25 kts 251°
2026-04-30 07:04 22.31105 113.90417 28 ft 29 kts 251°
2026-04-30 07:04 22.31038 113.90209 28 ft 28 kts 251°
2026-04-30 07:04 22.30974 113.90015 29 ft 26 kts 249°
2026-04-30 07:04 22.30933 113.89893 29 ft 9 kts 251°
2026-04-30 07:05 22.31017 113.89790 26 ft 12 kts 341°
2026-04-30 07:05 22.31097 113.89817 26 ft 13 kts 61°
2026-04-30 07:05 22.31129 113.89912 27 ft 14 kts 72°
2026-04-30 07:06 22.31231 113.90220 28 ft 76 kts 70°
2026-04-30 07:06 22.31477 113.90991 29 ft 134 kts 70°
2026-04-30 07:06 22.31826 113.92114 88 ft 174 kts 68°
2026-04-30 07:06 22.32214 113.93341 657 ft 172 kts 69°
2026-04-30 07:07 22.32607 113.94543 1282 ft 171 kts 67°
2026-04-30 07:07 22.33002 113.95760 1846 ft 175 kts 70°
2026-04-30 07:07 22.33433 113.97063 2087 ft 194 kts 61°
2026-04-30 07:07 22.34183 113.98342 2448 ft 210 kts 53°
2026-04-30 07:08 22.35073 113.99666 2892 ft 224 kts 53°
2026-04-30 07:08 22.35996 114.01057 3542 ft 228 kts 53°
2026-04-30 07:08 22.36899 114.02452 4200 ft 232 kts 53°
2026-04-30 07:08 22.37815 114.03890 4850 ft 236 kts 53°
2026-04-30 07:09 22.38749 114.05368 5496 ft 242 kts 54°
2026-04-30 07:09 22.39698 114.06892 6138 ft 247 kts 58°
2026-04-30 07:09 22.40213 114.08655 6744 ft 255 kts 92°
2026-04-30 07:09 22.39747 114.10529 7236 ft 267 kts 116°
2026-04-30 07:10 22.38910 114.12413 7657 ft 284 kts 116°
2026-04-30 07:10 22.38051 114.14394 8096 ft 299 kts 116°
2026-04-30 07:10 22.37187 114.16463 8770 ft 305 kts 115°
2026-04-30 07:10 22.36327 114.18568 9435 ft 309 kts 115°
2026-04-30 07:11 22.35463 114.20704 10050 ft 313 kts 115°
2026-04-30 07:11 22.34577 114.22894 10505 ft 323 kts 115°
2026-04-30 07:11 22.33623 114.25185 10787 ft 339 kts 120°
2026-04-30 07:11 22.32161 114.27219 11035 ft 349 kts 142°
2026-04-30 07:12 22.30079 114.28612 11330 ft 355 kts 158°
2026-04-30 07:12 22.27760 114.29718 11591 ft 369 kts 160°
2026-04-30 07:12 22.25394 114.30891 12002 ft 377 kts 155°
2026-04-30 07:12 22.23115 114.32280 12505 ft 382 kts 150°
2026-04-30 07:13 22.20907 114.33899 13002 ft 386 kts 147°
2026-04-30 07:13 22.18714 114.35622 13505 ft 390 kts 146°
2026-04-30 07:13 22.16526 114.37361 13984 ft 393 kts 146°
2026-04-30 07:13 22.14322 114.39111 14459 ft 396 kts 146°
2026-04-30 07:14 22.12069 114.40896 14921 ft 398 kts 146°
2026-04-30 07:14 22.09841 114.42654 15379 ft 401 kts 146°
2026-04-30 07:14 22.07595 114.44426 15830 ft 403 kts 146°
2026-04-30 07:14 22.05297 114.46237 16263 ft 406 kts 146°
2026-04-30 07:15 22.03023 114.48028 16674 ft 408 kts 146°
2026-04-30 07:15 22.00733 114.49831 17096 ft 411 kts 146°
2026-04-30 07:15 21.98452 114.51744 17504 ft 416 kts 138°
2026-04-30 07:15 21.96652 114.54214 17891 ft 423 kts 120°
2026-04-30 07:16 21.95560 114.57154 18306 ft 427 kts 105°
2026-04-30 07:16 21.94890 114.60272 18711 ft 429 kts 103°
2026-04-30 07:16 21.94264 114.63419 19082 ft 432 kts 102°
2026-04-30 07:16 21.93630 114.66573 19435 ft 435 kts 103°
2026-04-30 07:17 21.92972 114.69758 19796 ft 437 kts 103°
2026-04-30 07:17 21.92299 114.72948 20147 ft 439 kts 104°
2026-04-30 07:17 21.90924 114.79373 20832 ft 444 kts 104°
2026-04-30 07:18 21.90223 114.82627 21168 ft 447 kts 104°
2026-04-30 07:18 21.89527 114.85858 21497 ft 449 kts 104°
2026-04-30 07:18 21.88900 114.89153 21827 ft 451 kts 100°
2026-04-30 07:18 21.88539 114.92546 22170 ft 453 kts 94°
2026-04-30 07:19 21.88477 114.95909 22496 ft 455 kts 89°
2026-04-30 07:19 21.88574 114.99293 22818 ft 457 kts 88°
2026-04-30 07:19 21.88703 115.02720 23135 ft 459 kts 88°
2026-04-30 07:19 21.88833 115.06177 23435 ft 461 kts 88°
2026-04-30 07:20 21.88954 115.09630 23721 ft 463 kts 88°
2026-04-30 07:20 21.89067 115.13082 24017 ft 465 kts 88°
2026-04-30 07:20 21.89177 115.16574 24304 ft 467 kts 88°
2026-04-30 07:20 21.89284 115.20055 24589 ft 469 kts 88°
2026-04-30 07:21 21.89391 115.23581 24884 ft 471 kts 88°
2026-04-30 07:21 21.89498 115.27102 25149 ft 473 kts 88°
2026-04-30 07:21 21.89607 115.30637 25419 ft 476 kts 88°
2026-04-30 07:21 21.89715 115.34175 25699 ft 477 kts 88°
2026-04-30 07:22 21.89929 115.41353 26260 ft 481 kts 88°
2026-04-30 07:22 21.90034 115.44956 26531 ft 483 kts 88°
2026-04-30 07:22 21.90137 115.48552 26797 ft 484 kts 88°
2026-04-30 07:23 21.90240 115.52151 27062 ft 486 kts 88°
2026-04-30 07:23 21.90345 115.55817 27334 ft 487 kts 88°
2026-04-30 07:23 21.90495 115.59463 27590 ft 489 kts 85°
2026-04-30 07:23 21.90835 115.63072 27856 ft 491 kts 82°
2026-04-30 07:24 21.91395 115.66735 28111 ft 492 kts 78°
2026-04-30 07:24 21.92107 115.70345 28365 ft 493 kts 77°
2026-04-30 07:24 21.92845 115.73929 28696 ft 492 kts 77°
2026-04-30 07:24 21.93584 115.77502 29063 ft 490 kts 77°
2026-04-30 07:25 21.94318 115.81077 29385 ft 490 kts 77°
2026-04-30 07:25 21.95050 115.84674 29682 ft 490 kts 77°
2026-04-30 07:25 21.95773 115.88247 29969 ft 490 kts 77°
2026-04-30 07:25 21.96497 115.91833 30253 ft 490 kts 77°
2026-04-30 07:26 21.97218 115.95418 30564 ft 490 kts 77°
2026-04-30 07:26 21.97933 115.98981 30865 ft 490 kts 77°
2026-04-30 07:26 21.98651 116.02555 31143 ft 490 kts 78°
2026-04-30 07:26 21.99372 116.06132 31436 ft 490 kts 77°
2026-04-30 07:27 22.00416 116.09628 31693 ft 490 kts 64°
2026-04-30 07:27 22.02183 116.12759 31961 ft 487 kts 49°
2026-04-30 07:27 22.04527 116.15323 32224 ft 482 kts 36°
2026-04-30 07:27 22.07364 116.17261 32472 ft 476 kts 21°
2026-04-30 07:28 22.10460 116.18440 32712 ft 469 kts
2026-04-30 07:28 22.13666 116.18853 32967 ft 461 kts 355°
2026-04-30 07:28 22.16870 116.18773 33284 ft 458 kts 353°
2026-04-30 07:28 22.20029 116.18626 33540 ft 459 kts 352°
2026-04-30 07:29 22.23236 116.18478 33812 ft 459 kts 352°
2026-04-30 07:29 22.26423 116.18345 34084 ft 459 kts 353°
2026-04-30 07:29 22.29642 116.18222 34325 ft 459 kts 353°
2026-04-30 07:29 22.32841 116.18108 34537 ft 460 kts 353°
2026-04-30 07:30 22.39268 116.17893 34932 ft 461 kts 353°
2026-04-30 07:30 22.42506 116.17786 34979 ft 462 kts 353°
2026-04-30 07:31 22.48918 116.17577 34988 ft 463 kts 353°
2026-04-30 07:31 22.55395 116.17366 34990 ft 463 kts 353°
2026-04-30 07:32 22.61827 116.17156 34995 ft 464 kts 354°
2026-04-30 07:32 22.68348 116.17767 35000 ft 472 kts
2026-04-30 07:33 22.74643 116.19990 34998 ft 480 kts 21°
2026-04-30 07:33 22.80394 116.23771 35005 ft 487 kts 33°
2026-04-30 07:34 22.85742 116.28265 35004 ft 487 kts 34°
2026-04-30 07:34 22.91078 116.32769 35004 ft 487 kts 34°
2026-04-30 07:35 22.96483 116.37264 35007 ft 488 kts 33°
2026-04-30 07:35 23.01896 116.41718 35010 ft 487 kts 33°
2026-04-30 07:36 23.07294 116.46168 35010 ft 488 kts 33°
2026-04-30 07:36 23.12705 116.50644 35009 ft 488 kts 33°
2026-04-30 07:37 23.18092 116.55104 35009 ft 488 kts 34°
2026-04-30 07:37 23.23485 116.59579 35010 ft 488 kts 34°
2026-04-30 07:38 23.28906 116.64082 35011 ft 487 kts 33°
2026-04-30 07:38 23.34288 116.68557 35007 ft 487 kts 34°
2026-04-30 07:39 23.39679 116.73045 35011 ft 487 kts 34°
2026-04-30 07:39 23.44905 116.77751 35010 ft 490 kts 40°
2026-04-30 07:40 23.49694 116.83009 35012 ft 492 kts 43°
2026-04-30 07:40 23.54433 116.88425 35011 ft 491 kts 44°
2026-04-30 07:41 23.59148 116.93803 35011 ft 491 kts 43°
2026-04-30 07:41 23.63863 116.99171 35011 ft 492 kts 43°
2026-04-30 07:42 23.68599 117.04568 35010 ft 491 kts 43°
2026-04-30 07:42 23.73318 117.09952 35011 ft 492 kts 43°
2026-04-30 07:43 23.78167 117.15220 35012 ft 490 kts 39°
2026-04-30 07:43 23.83238 117.20170 35015 ft 489 kts 38°
2026-04-30 07:44 23.88325 117.25111 35018 ft 490 kts 38°
2026-04-30 07:44 23.93402 117.30067 35021 ft 490 kts 38°
2026-04-30 07:45 23.98495 117.35055 35026 ft 490 kts 38°
2026-04-30 07:45 24.03566 117.40027 35033 ft 490 kts 38°
2026-04-30 07:46 24.08645 117.45016 35035 ft 490 kts 38°
2026-04-30 07:46 24.13661 117.50024 35036 ft 492 kts 41°
2026-04-30 07:47 24.18363 117.55468 35035 ft 494 kts 44°
2026-04-30 07:47 24.22991 117.61043 35032 ft 494 kts 45°
2026-04-30 07:48 24.27590 117.66584 35025 ft 494 kts 45°
2026-04-30 07:48 24.32233 117.72170 35020 ft 495 kts 45°
2026-04-30 07:49 24.36844 117.77722 35017 ft 495 kts 45°
2026-04-30 07:49 24.41497 117.83330 35021 ft 495 kts 45°
2026-04-30 07:50 24.44167 117.86549 35019 ft 495 kts 45°
2026-04-30 07:50 24.48802 117.92152 35022 ft 495 kts 45°
2026-04-30 07:51 24.53439 117.97765 35027 ft 496 kts 45°
2026-04-30 07:51 24.58084 118.03334 35027 ft 495 kts 43°
2026-04-30 07:52 24.62883 118.08747 35028 ft 495 kts 42°
2026-04-30 07:52 24.67717 118.14203 35025 ft 495 kts 42°
2026-04-30 07:53 24.72517 118.19657 35025 ft 495 kts 43°
2026-04-30 07:53 24.77272 118.25069 35023 ft 495 kts 43°
2026-04-30 07:54 24.82056 118.30527 35023 ft 495 kts 42°
2026-04-30 07:54 24.86858 118.36015 35027 ft 496 kts 43°
2026-04-30 07:55 24.91608 118.41451 35033 ft 496 kts 43°
2026-04-30 07:55 24.96393 118.46933 35039 ft 496 kts 43°
2026-04-30 07:56 25.01163 118.52409 35042 ft 496 kts 43°
2026-04-30 07:56 25.05926 118.57887 35047 ft 496 kts 43°
2026-04-30 07:57 25.10694 118.63397 35130 ft 496 kts 43°
2026-04-30 07:57 25.15376 118.69032 35146 ft 497 kts 44°
2026-04-30 07:58 25.20010 118.74654 35149 ft 498 kts 44°
2026-04-30 07:58 25.24665 118.80290 35149 ft 498 kts 44°
2026-04-30 07:59 25.29354 118.85967 35151 ft 499 kts 44°
2026-04-30 07:59 25.34004 118.91605 35153 ft 500 kts 44°
2026-04-30 08:00 25.41165 118.99979 35156 ft 500 kts 43°
2026-04-30 08:00 25.45986 119.05586 35157 ft 501 kts 43°
2026-04-30 08:01 25.50760 119.11165 35157 ft 501 kts 43°
2026-04-30 08:01 25.55529 119.16755 35157 ft 502 kts 43°
2026-04-30 08:02 25.62704 119.25185 35157 ft 503 kts 43°
2026-04-30 08:03 25.72744 119.35867 35156 ft 496 kts 30°
2026-04-30 08:04 25.78646 119.39713 35156 ft 487 kts 19°
2026-04-30 08:04 25.84958 119.42307 35160 ft 481 kts 10°
2026-04-30 08:05 25.91392 119.44444 35161 ft 481 kts 10°
2026-04-30 08:05 25.97797 119.46581 35161 ft 482 kts 10°
2026-04-30 08:06 26.04213 119.48757 35159 ft 482 kts 10°
2026-04-30 08:06 26.10624 119.50944 35162 ft 482 kts 10°
2026-04-30 08:07 26.17059 119.53189 35163 ft 485 kts 12°
2026-04-30 08:07 26.23323 119.56086 35165 ft 492 kts 19°
2026-04-30 08:08 26.29324 119.59856 35169 ft 498 kts 26°
2026-04-30 08:08 26.35197 119.64009 35165 ft 499 kts 26°
2026-04-30 08:09 26.41055 119.68149 35166 ft 500 kts 26°
2026-04-30 08:09 26.46793 119.72179 35167 ft 501 kts 26°
2026-04-30 08:10 26.52679 119.76299 35169 ft 501 kts 26°
2026-04-30 08:10 26.58596 119.80450 35168 ft 502 kts 26°
2026-04-30 08:11 26.64509 119.84608 35168 ft 502 kts 26°
2026-04-30 08:11 26.70401 119.88755 35169 ft 503 kts 26°
2026-04-30 08:12 26.76321 119.92931 35170 ft 504 kts 26°
2026-04-30 08:12 26.82271 119.97133 35170 ft 505 kts 26°
2026-04-30 08:13 26.88246 120.01356 35169 ft 505 kts 25°
2026-04-30 08:13 26.94175 120.05549 35168 ft 507 kts 25°
2026-04-30 08:14 27.00157 120.09794 35168 ft 508 kts 25°
2026-04-30 08:14 27.06077 120.14007 35167 ft 507 kts 25°
2026-04-30 08:15 27.12036 120.18244 35166 ft 507 kts 25°
2026-04-30 08:15 27.18028 120.22481 35170 ft 507 kts 25°
2026-04-30 08:16 27.24003 120.26688 35169 ft 509 kts 25°
2026-04-30 08:16 27.29994 120.30925 35170 ft 509 kts 25°
2026-04-30 08:17 27.36016 120.35189 35170 ft 510 kts 25°
2026-04-30 08:17 27.41994 120.39426 35175 ft 512 kts 25°
2026-04-30 08:18 27.48015 120.43707 35175 ft 512 kts 25°
2026-04-30 08:18 27.54040 120.48004 35173 ft 512 kts 25°
2026-04-30 08:19 27.60024 120.52274 35171 ft 512 kts 25°
2026-04-30 08:19 27.66045 120.56579 35171 ft 512 kts 24°
2026-04-30 08:20 27.72251 120.60387 35168 ft 502 kts 14°
2026-04-30 08:20 27.78795 120.62885 35169 ft 491 kts
2026-04-30 08:21 27.85416 120.64064 35172 ft 478 kts 354°
2026-04-30 08:21 27.92073 120.64628 35170 ft 478 kts 353°
2026-04-30 08:22 27.98703 120.65204 35166 ft 478 kts 354°
2026-04-30 08:22 28.05341 120.65823 35167 ft 478 kts 354°
2026-04-30 08:23 28.11957 120.66474 35163 ft 478 kts 354°
2026-04-30 08:23 28.18614 120.67130 35165 ft 479 kts 353°
2026-04-30 08:24 28.25219 120.67780 35169 ft 477 kts 354°
2026-04-30 08:24 28.31871 120.68433 35169 ft 478 kts 353°
2026-04-30 08:25 28.38490 120.69087 35165 ft 478 kts 353°
2026-04-30 08:25 28.45136 120.69742 35163 ft 478 kts 353°
2026-04-30 08:26 28.51757 120.70403 35165 ft 480 kts 353°
2026-04-30 08:26 28.58444 120.71079 35166 ft 478 kts 353°
2026-04-30 08:27 28.65040 120.71748 35164 ft 478 kts 353°
2026-04-30 08:27 28.71704 120.72430 35163 ft 478 kts 353°
2026-04-30 08:28 28.78323 120.73158 35160 ft 479 kts 353°
2026-04-30 08:28 28.84969 120.73893 35161 ft 479 kts 353°
2026-04-30 08:29 28.91587 120.74586 35160 ft 481 kts 352°
2026-04-30 08:29 28.98262 120.75269 35165 ft 478 kts 352°
2026-04-30 08:30 29.04845 120.75945 35165 ft 477 kts 352°
2026-04-30 08:30 29.11470 120.76625 35163 ft 476 kts 352°
2026-04-30 08:31 29.18077 120.77305 35165 ft 477 kts 352°
2026-04-30 08:31 29.24676 120.77987 35166 ft 478 kts 352°
2026-04-30 08:32 29.31294 120.78674 35166 ft 478 kts 352°
2026-04-30 08:32 29.37893 120.79361 35170 ft 476 kts 352°
2026-04-30 08:33 29.44504 120.80048 35169 ft 475 kts 352°
2026-04-30 08:33 29.51057 120.80732 35168 ft 472 kts 352°
2026-04-30 08:33 29.54350 120.81079 34906 ft 468 kts 352°
2026-04-30 08:34 29.57604 120.81689 33961 ft 494 kts
2026-04-30 08:34 29.60812 120.83446 32805 ft 534 kts 25°
2026-04-30 08:34 29.63593 120.86397 31776 ft 555 kts 44°
2026-04-30 08:34 29.65767 120.90005 30424 ft 564 kts 54°
2026-04-30 08:35 29.67715 120.93890 28592 ft 572 kts 57°
2026-04-30 08:35 29.69690 120.97890 26709 ft 574 kts 56°
2026-04-30 08:35 29.71688 121.01747 25631 ft 554 kts 54°
2026-04-30 08:35 29.73656 121.05391 24614 ft 536 kts 52°
2026-04-30 08:36 29.75659 121.08968 23766 ft 515 kts 52°
2026-04-30 08:36 29.77575 121.12319 23194 ft 500 kts 52°
2026-04-30 08:36 29.79456 121.15608 22664 ft 487 kts 51°
2026-04-30 08:36 29.81311 121.18844 22188 ft 480 kts 52°
2026-04-30 08:37 29.83127 121.22010 21652 ft 477 kts 52°
2026-04-30 08:37 29.84934 121.25176 21150 ft 473 kts 52°
2026-04-30 08:37 29.86735 121.28343 20639 ft 471 kts 52°
2026-04-30 08:37 29.88582 121.31422 20093 ft 465 kts 46°
2026-04-30 08:38 29.90839 121.34033 19552 ft 454 kts 32°
2026-04-30 08:38 29.93433 121.35997 19009 ft 443 kts 21°
2026-04-30 08:38 29.96121 121.37664 18467 ft 439 kts 20°
2026-04-30 08:38 29.98845 121.39297 17921 ft 437 kts 20°
2026-04-30 08:39 30.01529 121.40919 17391 ft 435 kts 21°
2026-04-30 08:39 30.04173 121.42544 16886 ft 432 kts 21°
2026-04-30 08:39 30.06826 121.44190 16356 ft 429 kts 21°
2026-04-30 08:39 30.09439 121.45824 15837 ft 425 kts 21°
2026-04-30 08:40 30.12023 121.47448 15352 ft 421 kts 22°
2026-04-30 08:40 30.14581 121.49055 14836 ft 417 kts 22°
2026-04-30 08:40 30.17101 121.50639 14335 ft 412 kts 21°
2026-04-30 08:40 30.19598 121.52209 13812 ft 409 kts 22°
2026-04-30 08:41 30.22106 121.53787 13338 ft 403 kts 22°
2026-04-30 08:41 30.24531 121.55314 12832 ft 399 kts 22°
2026-04-30 08:41 30.26949 121.56850 12336 ft 395 kts 23°
2026-04-30 08:41 30.29355 121.58406 11826 ft 391 kts 23°
2026-04-30 08:42 30.31684 121.59917 11316 ft 387 kts 23°
2026-04-30 08:42 30.34027 121.61436 10845 ft 382 kts 23°
2026-04-30 08:42 30.36312 121.62922 10592 ft 371 kts 24°
2026-04-30 08:42 30.38538 121.64343 10409 ft 357 kts 22°
2026-04-30 08:43 30.40703 121.65693 10230 ft 345 kts 22°
2026-04-30 08:43 30.42772 121.66976 10116 ft 332 kts 22°
2026-04-30 08:43 30.44775 121.68223 9984 ft 321 kts 22°
2026-04-30 08:43 30.46720 121.69432 9671 ft 316 kts 22°
2026-04-30 08:44 30.48638 121.70628 9375 ft 311 kts 22°
2026-04-30 08:44 30.50531 121.71809 9160 ft 303 kts 22°
2026-04-30 08:44 30.52366 121.72955 9003 ft 294 kts 23°
2026-04-30 08:44 30.54125 121.74061 8903 ft 284 kts 22°
2026-04-30 08:45 30.55892 121.74970 8769 ft 270 kts 13°
2026-04-30 08:45 30.57634 121.75576 8786 ft 253 kts 10°
2026-04-30 08:45 30.59280 121.76107 8800 ft 238 kts
2026-04-30 08:45 30.60866 121.76611 8813 ft 229 kts
2026-04-30 08:46 30.62376 121.77088 8662 ft 226 kts
2026-04-30 08:46 30.63910 121.77570 8356 ft 227 kts
2026-04-30 08:46 30.65436 121.78054 8070 ft 227 kts
2026-04-30 08:46 30.66955 121.78540 7812 ft 225 kts 10°
2026-04-30 08:47 30.68466 121.79025 7536 ft 225 kts 11°
2026-04-30 08:47 30.69963 121.79507 7269 ft 224 kts 11°
2026-04-30 08:47 30.71480 121.79997 7008 ft 222 kts 11°
2026-04-30 08:47 30.72952 121.80473 6720 ft 216 kts 12°
2026-04-30 08:48 30.74376 121.80935 6426 ft 209 kts 12°
2026-04-30 08:48 30.75754 121.81381 6169 ft 201 kts 12°
2026-04-30 08:48 30.77078 121.81812 5924 ft 197 kts 12°
2026-04-30 08:48 30.78401 121.82240 5665 ft 196 kts 12°
2026-04-30 08:49 30.79716 121.82664 5411 ft 195 kts 12°
2026-04-30 08:49 30.81018 121.83100 5162 ft 197 kts 13°
2026-04-30 08:49 30.82360 121.83557 4904 ft 199 kts 13°
2026-04-30 08:49 30.83698 121.84014 4644 ft 201 kts 13°
2026-04-30 08:50 30.85044 121.84474 4394 ft 203 kts 13°
2026-04-30 08:50 30.86398 121.84936 4134 ft 205 kts 13°
2026-04-30 08:50 30.87775 121.85404 3861 ft 206 kts 13°
2026-04-30 08:50 30.89160 121.85878 3591 ft 207 kts 13°
2026-04-30 08:51 30.90539 121.86347 3325 ft 208 kts 14°
2026-04-30 08:51 30.91957 121.86687 3057 ft 207 kts 360°
2026-04-30 08:51 30.93369 121.86549 2991 ft 196 kts 348°
2026-04-30 08:51 30.94654 121.86179 2972 ft 185 kts 343°
2026-04-30 08:52 30.95883 121.85745 2973 ft 184 kts 342°
2026-04-30 08:52 30.97108 121.85287 2997 ft 184 kts 342°
2026-04-30 08:52 30.98289 121.84840 2957 ft 173 kts 341°
2026-04-30 08:52 30.99419 121.84412 2694 ft 165 kts 341°
2026-04-30 08:53 31.00472 121.84013 2449 ft 155 kts 341°
2026-04-30 08:53 31.01475 121.83633 2235 ft 146 kts 342°
2026-04-30 08:53 31.02415 121.83276 2024 ft 137 kts 342°
2026-04-30 08:53 31.03318 121.82933 1885 ft 136 kts 342°
2026-04-30 08:54 31.04207 121.82596 1717 ft 133 kts 342°
2026-04-30 08:54 31.05081 121.82265 1549 ft 132 kts 343°
2026-04-30 08:54 31.05951 121.81935 1363 ft 126 kts 342°
2026-04-30 08:54 31.06771 121.81625 1190 ft 122 kts 343°
2026-04-30 08:55 31.07584 121.81317 1038 ft 123 kts 343°
2026-04-30 08:55 31.08405 121.81006 882 ft 123 kts 343°
2026-04-30 08:55 31.09218 121.80698 718 ft 124 kts 343°
2026-04-30 08:55 31.10045 121.80386 551 ft 123 kts 343°
2026-04-30 08:56 31.10860 121.80077 390 ft 123 kts 344°
2026-04-30 08:56 31.11674 121.79771 239 ft 123 kts 344°
2026-04-30 08:56 31.12497 121.79466 111 ft 124 kts 343°
2026-04-30 08:56 31.13299 121.79157 22 ft 111 kts 344°
2026-04-30 08:57 31.13877 121.78944 21 ft 61 kts 342°
2026-04-30 08:57 31.14150 121.78840 21 ft 34 kts 343°
2026-04-30 08:57 31.14374 121.78758 21 ft 32 kts 348°
2026-04-30 08:57 31.14586 121.78754 21 ft 29 kts
2026-04-30 08:58 31.14658 121.78767 21 ft 1 kts
2026-04-30 08:58 31.14689 121.78778 21 ft 7 kts 27°
2026-04-30 08:58 31.14735 121.78846 21 ft 13 kts 70°
2026-04-30 08:58 31.14768 121.78964 21 ft 15 kts 72°
2026-04-30 08:59 31.14805 121.79092 21 ft 18 kts 72°
2026-04-30 08:59 31.14845 121.79240 21 ft 19 kts 74°
2026-04-30 08:59 31.14887 121.79390 21 ft 19 kts 71°
2026-04-30 08:59 31.14930 121.79538 21 ft 10 kts 70°
2026-04-30 09:00 31.14964 121.79605 21 ft 10 kts 51°
2026-04-30 09:00 31.14995 121.79685 21 ft 8 kts 72°
2026-04-30 09:00 31.15001 121.79709 21 ft 0 kts 72°